Terminal Aerodrome Forecast
Issued by NWS Pocatello, ID

Home | Current Version | Previous Version | Text Only | Print | Product List | Glossary On
Versions: 1 2 3 4 5 6 7 8 9 10 11 12 13 14 15 16
000
FTUS45 KPIH 291722
TAFIDA
TAF
KIDA 291722Z 2918/3018 17010KT P6SM VCTS SCT070CB BKN120
     FM291900 22020G30KT P6SM SCT120 BKN200
     FM300100 19010G15KT P6SM VCTS BKN070CB
     FM300900 20011KT P6SM SCT070
     FM301600 21015G23KT P6SM BKN100=

USA.gov is the U.S. government's official web portal to all federal, state and local government web resources and services.